{"data":{"norad_id":59899,"intl_designator":"2024-100Q","name":"STARLINK-31942","alt_names":[],"object_type":"PAYLOAD","status":"ACTIVE","operator":null,"country":"US","launch_date":"2024-05-28","launch_site_code":"AFETR","launch_vehicle":null,"mission":null,"orbit_class":"UNKNOWN","rcs_meters":null,"size_class":null,"mass_kg":null,"dimensions":null,"purposes":["comms"],"wikipedia_slug":null,"has_3d_model":false,"image_url":null,"decayed_at":null,"tle_current":{"epoch":"2026-09-20T23:11:11.880672Z","epoch_age_seconds":134218,"freshness":"FRESH","line1":"1 59899U 24100Q   26263.96610973 -.00000993  00000+0 -26553-4 0  9994","line2":"2 59899  43.0039 102.4216 0001546 270.7363  89.3312 15.27568796131019","mean_motion":15.27568796,"eccentricity":0.0001546,"inclination_deg":43.0039,"raan_deg":102.4216,"arg_perigee_deg":270.7363,"mean_anomaly_deg":89.3312,"bstar":-2.6553e-5,"rev_number":13101,"period_min":94.267440116,"perigee_km":482.0219004942,"apogee_km":484.14338960845,"semimajor_km":6861.2196450513,"source":"CELESTRAK","updated_at":"2026-09-22T09:00:49.108453Z"}}}